Temp
-17 -17 -17 -16 -16 -16 -16 -16 -15 -15 -15 -15 -14 -15 -14 -14 -13 -12 -13 -13 -13 -13 -12 -11 -11 -11 -11 -11 -11 -10 -10 -10 -10 -10 -9 -9 -10 -9 -9 -8 -8 -8 -8 -7 -7
-18 -17 -17 -17 -16 -16 -16 -16 -16 -16 -15 -15 -15 -15 -15 -14 -14 -13 -13 -13 -13 -13 -12 -12 -11 -11 -11 -12 -10 -11 -11 -10 -10 -10 -9 -9 -10 -9 -9 -9 -9 -8 -8 -7 -7
-18 -18 -17 -17 -17 -16 -16 -16 -16 -16 -16 -16 -16 -15 -15 -15 -14 -13 -13 -13 -13 -13 -13 -12 -12 -11 -11 -12 -11 -11 -11 -11 -10 -10 -10 -10 -10 -10 -9 -9 -8 -8 -8 -7 -7
-19 -18 -18 -17 -17 -17 -16 -16 -16 -16 -16 -16 -16 -16 -16 -15 -15 -14 -13 -13 -13 -13 -13 -12 -12 -12 -12 -12 -12 -11 -11 -11 -10 -10 -10 -10 -10 -10 -9 -9 -8 -9 -8 -8 -8
-19 -18 -18 -18 -17 -17 -17 -17 -17 -16 -16 -16 -16 -16 -16 -15 -15 -14 -14 -14 -13 -13 -13 -13 -13 -12 -12 -12 -12 -12 -11 -11 -11 -10 -10 -10 -10 -10 -9 -9 -8 -9 -8 -8 -8
-19 -19 -19 -18 -18 -17 -17 -17 -17 -17 -17 -17 -16 -16 -16 -16 -15 -15 -15 -15 -14 -13 -13 -13 -13 -13 -13 -12 -12 -12 -11 -11 -11 -11 -11 -10 -10 -10 -9 -9 -9 -9 -8 -8 -8
-19 -19 -19 -19 -18 -18 -18 -18 -17 -17 -17 -17 -17 -17 -16 -16 -16 -15 -15 -15 -14 -14 -13 -13 -13 -13 -12 -12 -12 -12 -11 -12 -11 -11 -11 -10 -10 -10 -10 -9 -9 -9 -9 -8 -8
-20 -19 -19 -19 -19 -19 -18 -18 -18 -18 -17 -17 -17 -17 -16 -16 -16 -16 -16 -15 -15 -15 -14 -13 -13 -13 -13 -12 -12 -12 -12 -11 -11 -11 -11 -10 -11 -11 -10 -10 -9 -9 -9 -9 -8
-20 -20 -20 -20 -19 -19 -19 -19 -18 -18 -18 -18 -18 -17 -16 -16 -16 -16 -16 -16 -15 -15 -15 -14 -13 -13 -13 -13 -13 -12 -11 -12 -12 -11 -11 -10 -11 -11 -11 -10 -10 -9 -9 -9 -9
-20 -20 -20 -20 -20 -20 -19 -19 -19 -19 -19 -19 -18 -18 -16 -15 -16 -16 -16 -16 -16 -16 -15 -15 -14 -13 -13 -12 -11 -12 -12 -12 -12 -12 -12 -12 -11 -12 -11 -11 -10 -10 -9 -9 -9
-21 -21 -21 -21 -20 -20 -20 -20 -20 -19 -19 -18 -17 -16 -15 -16 -17 -16 -16 -16 -17 -17 -16 -15 -14 -13 -13 -12 -13 -12 -12 -12 -12 -13 -12 -12 -11 -11 -11 -11 -11 -10 -10 -9 -9
-22 -21 -21 -21 -21 -21 -21 -20 -20 -19 -18 -18 -18 -17 -17 -16 -17 -17 -17 -17 -17 -16 -16 -15 -13 -13 -14 -13 -13 -13 -12 -12 -12 -12 -12 -11 -11 -11 -11 -10 -10 -10 -10 -10 -9
-22 -22 -21 -21 -21 -21 -20 -20 -20 -20 -20 -19 -18 -17 -16 -16 -16 -17 -18 -17 -17 -17 -17 -16 -13 -14 -14 -14 -13 -13 -12 -12 -12 -12 -12 -11 -10 -11 -10 -11 -10 -10 -10 -10 -10
-22 -22 -22 -22 -21 -21 -21 -21 -21 -20 -20 -20 -19 -18 -17 -17 -17 -17 -17 -18 -18 -17 -18 -17 -16 -15 -15 -14 -14 -13 -13 -13 -13 -13 -12 -12 -10 -10 -11 -10 -10 -10 -11 -11 -10
-23 -23 -22 -22 -21 -21 -21 -21 -21 -22 -22 -20 -19 -18 -18 -17 -16 -17 -17 -18 -17 -17 -18 -15 -16 -15 -15 -13 -15 -14 -14 -14 -13 -13 -12 -12 -11 -9 -11 -10 -10 -10 -11 -11 -11
-23 -23 -23 -23 -22 -22 -22 -22 -23 -23 -22 -20 -19 -18 -18 -17 -16 -17 -18 -18 -18 -18 -18 -17 -17 -17 -15 -16 -17 -16 -16 -15 -14 -13 -12 -11 -11 -8 -9 -10 -11 -11 -10 -10 -10
-23 -23 -23 -23 -22 -22 -23 -23 -23 -23 -22 -20 -18 -18 -18 -18 -17 -17 -17 -17 -17 -18 -17 -17 -16 -18 -17 -16 -17 -16 -16 -16 -16 -15 -12 -11 -11 -9 -9 -10 -11 -11 -11 -11 -10
-23 -23 -23 -24 -24 -24 -24 -23 -23 -22 -22 -19 -19 -19 -18 -18 -18 -18 -18 -18 -17 -19 -18 -17 -17 -17 -16 -16 -15 -14 -16 -15 -14 -13 -12 -12 -10 -9 -9 -10 -11 -11 -11 -11 -10
-23 -24 -24 -24 -24 -24 -24 -24 -23 -22 -22 -20 -20 -20 -19 -19 -19 -19 -18 -19 -19 -18 -17 -17 -17 -17 -17 -17 -17 -16 -17 -16 -15 -14 -13 -12 -11 -11 -10 -11 -11 -11 -11 -11 -11
-23 -24 -24 -24 -24 -24 -24 -24 -24 -23 -22 -22 -21 -21 -20 -19 -20 -19 -19 -17 -18 -18 -18 -18 -18 -17 -17 -17 -16 -16 -16 -17 -17 -15 -14 -12 -11 -11 -10 -11 -11 -11 -11 -11 -11
-24 -24 -24 -25 -25 -25 -24 -24 -24 -24 -23 -23 -22 -21 -21 -22 -21 -20 -19 -18 -18 -18 -19 -19 -18 -18 -18 -17 -16 -16 -17 -16 -17 -16 -14 -13 -12 -11 -11 -11 -11 -11 -11 -11 -11
-24 -24 -25 -25 -25 -25 -24 -24 -24 -24 -24 -23 -23 -23 -23 -23 -22 -21 -20 -19 -19 -20 -20 -19 -19 -18 -17 -17 -18 -16 -16 -17 -16 -15 -14 -14 -12 -12 -12 -12 -12 -11 -11 -11 -11
-24 -25 -25 -25 -25 -25 -24 -25 -25 -24 -24 -24 -24 -24 -23 -23 -22 -22 -21 -20 -20 -20 -19 -19 -18 -18 -18 -17 -17 -17 -16 -17 -17 -17 -16 -14 -13 -13 -12 -12 -12 -12 -12 -11 -11
-25 -26 -25 -25 -25 -25 -25 -24 -24 -24 -24 -24 -24 -24 -23 -23 -22 -22 -21 -21 -21 -20 -21 -20 -19 -18 -18 -17 -16 -16 -15 -16 -16 -17 -15 -14 -13 -14 -13 -13 -13 -13 -12 -12 -12
-26 -26 -25 -25 -25 -25 -25 -25 -24 -24 -24 -24 -24 -24 -23 -23 -22 -21 -21 -21 -21 -20 -20 -20 -19 -18 -18 -18 -17 -17 -17 -16 -17 -16 -16 -14 -14 -14 -14 -15 -15 -14 -13 -12 -12
-26 -25 -25 -25 -25 -25 -24 -24 -24 -24 -24 -24 -24 -24 -24 -23 -22 -22 -21 -21 -20 -20 -21 -20 -19 -19 -19 -18 -18 -17 -17 -17 -17 -17 -17 -16 -16 -16 -16 -15 -14 -13 -14 -14 -13
-26 -25 -26 -26 -25 -25 -25 -25 -25 -25 -25 -25 -24 -24 -24 -23 -23 -23 -23 -22 -20 -19 -20 -20 -19 -19 -18 -18 -18 -17 -16 -16 -16 -16 -16 -16 -14 -16 -16 -15 -15 -15 -15 -15 -15
Height
5646 5653 5661 5670 5679 5687 5696 5703 5712 5719 5726 5733 5741 5748 5755 5762 5771 5779 5788 5794 5797 5804 5809 5813 5819 5825 5828 5833 5838 5840 5845 5847 5851 5852 5855 5861 5863 5866 5868 5871 5875 5878 5877 5879 5878
5634 5642 5649 5658 5668 5677 5687 5695 5703 5711 5718 5725 5731 5738 5746 5753 5760 5771 5780 5786 5789 5796 5803 5806 5813 5820 5824 5827 5832 5836 5840 5843 5847 5848 5853 5859 5861 5862 5866 5867 5871 5875 5874 5876 5877
5622 5630 5639 5647 5657 5667 5676 5686 5695 5703 5710 5717 5723 5729 5735 5742 5751 5767 5770 5777 5781 5788 5796 5799 5806 5813 5818 5823 5827 5832 5837 5840 5843 5846 5849 5853 5857 5858 5862 5863 5868 5871 5872 5874 5873
5610 5619 5629 5637 5646 5656 5666 5675 5685 5694 5701 5708 5715 5721 5725 5733 5745 5754 5762 5770 5774 5781 5789 5794 5800 5806 5812 5818 5821 5827 5831 5835 5838 5842 5846 5849 5852 5854 5858 5861 5864 5866 5868 5871 5872
5597 5608 5617 5627 5637 5646 5656 5665 5675 5684 5692 5699 5705 5711 5717 5728 5738 5747 5756 5762 5768 5775 5782 5787 5793 5798 5804 5812 5816 5822 5825 5829 5834 5838 5841 5844 5848 5852 5852 5857 5860 5862 5865 5867 5869
5585 5596 5607 5616 5627 5636 5645 5655 5665 5673 5681 5689 5696 5701 5710 5719 5728 5736 5744 5752 5759 5765 5772 5777 5786 5789 5797 5804 5811 5817 5819 5824 5829 5833 5836 5841 5844 5845 5847 5853 5856 5860 5860 5863 5864
5573 5584 5595 5605 5615 5625 5635 5644 5654 5663 5671 5679 5686 5692 5699 5714 5717 5725 5733 5742 5750 5756 5762 5768 5772 5782 5789 5796 5804 5811 5814 5817 5824 5829 5831 5835 5839 5843 5842 5848 5851 5854 5857 5859 5859
5560 5572 5583 5594 5605 5614 5624 5633 5643 5652 5660 5668 5675 5681 5690 5699 5705 5718 5727 5735 5743 5748 5753 5759 5763 5774 5783 5790 5796 5804 5808 5809 5819 5822 5826 5828 5837 5835 5838 5843 5846 5849 5854 5855 5855
5547 5559 5571 5583 5593 5603 5612 5622 5631 5641 5648 5655 5663 5671 5679 5690 5700 5710 5720 5726 5733 5739 5744 5750 5755 5765 5775 5781 5788 5797 5802 5804 5813 5817 5819 5821 5832 5829 5835 5838 5840 5843 5846 5850 5852
5534 5547 5558 5571 5581 5591 5601 5610 5619 5627 5634 5643 5653 5661 5673 5688 5693 5700 5707 5716 5722 5729 5733 5740 5747 5757 5765 5773 5785 5793 5796 5800 5807 5812 5814 5816 5827 5826 5829 5832 5834 5835 5841 5846 5849
5523 5535 5547 5558 5569 5579 5587 5595 5605 5615 5628 5642 5652 5657 5666 5674 5681 5689 5698 5705 5712 5715 5722 5729 5739 5750 5765 5770 5777 5783 5786 5792 5799 5802 5805 5811 5817 5821 5822 5825 5828 5832 5836 5839 5845
5511 5524 5536 5547 5558 5567 5578 5593 5605 5616 5621 5628 5637 5647 5655 5663 5672 5679 5687 5695 5702 5710 5716 5720 5730 5747 5752 5757 5766 5773 5779 5786 5791 5796 5798 5803 5811 5816 5816 5820 5824 5829 5830 5834 5838
5501 5514 5526 5537 5546 5558 5576 5587 5592 5604 5611 5619 5627 5635 5645 5653 5661 5670 5679 5689 5695 5701 5708 5713 5734 5734 5739 5748 5756 5765 5771 5778 5784 5788 5790 5793 5799 5807 5811 5814 5817 5823 5826 5828 5832
5491 5504 5516 5525 5537 5554 5568 5576 5583 5592 5598 5605 5614 5625 5634 5643 5651 5661 5670 5679 5685 5695 5701 5706 5715 5719 5727 5738 5747 5756 5766 5769 5772 5780 5783 5785 5786 5800 5805 5808 5812 5817 5820 5822 5824
5482 5494 5505 5522 5537 5550 5563 5567 5575 5582 5583 5594 5604 5616 5625 5633 5647 5655 5661 5667 5679 5685 5690 5699 5703 5711 5719 5736 5739 5747 5755 5760 5764 5771 5774 5779 5778 5792 5799 5801 5807 5811 5813 5814 5816
5472 5484 5497 5509 5523 5541 5548 5557 5565 5569 5569 5583 5596 5606 5617 5629 5636 5643 5652 5660 5670 5675 5682 5691 5698 5702 5716 5723 5727 5733 5743 5749 5752 5759 5760 5770 5773 5773 5791 5796 5802 5803 5806 5807 5811
5466 5479 5492 5505 5518 5526 5537 5548 5553 5555 5564 5577 5589 5600 5610 5621 5627 5635 5643 5649 5657 5666 5674 5685 5688 5696 5706 5711 5715 5722 5734 5737 5740 5742 5751 5761 5762 5767 5782 5793 5794 5796 5799 5801 5804
5460 5472 5483 5497 5508 5519 5526 5536 5538 5552 5559 5570 5582 5589 5600 5609 5615 5625 5633 5639 5648 5660 5670 5673 5677 5687 5693 5698 5710 5718 5722 5726 5729 5738 5748 5746 5754 5760 5773 5786 5788 5790 5792 5795 5799
5452 5462 5475 5488 5501 5511 5518 5523 5532 5543 5553 5562 5572 5578 5588 5597 5607 5614 5623 5632 5641 5651 5658 5663 5667 5681 5687 5695 5703 5705 5704 5726 5722 5729 5732 5737 5751 5754 5761 5778 5780 5784 5786 5789 5790
5445 5457 5469 5482 5495 5503 5509 5516 5524 5534 5545 5555 5562 5571 5581 5589 5596 5603 5611 5624 5633 5640 5652 5657 5664 5672 5680 5682 5686 5692 5713 5708 5709 5717 5722 5729 5738 5745 5752 5767 5772 5775 5778 5781 5783
5440 5450 5463 5476 5488 5494 5498 5508 5518 5527 5535 5546 5554 5564 5573 5582 5589 5595 5604 5616 5626 5636 5643 5650 5655 5661 5667 5665 5673 5685 5685 5694 5706 5710 5717 5724 5729 5739 5743 5752 5766 5767 5769 5772 5773
5435 5447 5458 5470 5479 5483 5493 5501 5514 5521 5531 5541 5548 5557 5565 5573 5581 5587 5595 5611 5620 5628 5632 5642 5645 5649 5657 5661 5671 5675 5681 5692 5691 5700 5708 5712 5721 5726 5734 5739 5755 5760 5761 5763 5765
5432 5445 5455 5464 5469 5476 5491 5500 5510 5519 5525 5534 5540 5548 5557 5565 5574 5581 5590 5599 5605 5613 5621 5632 5636 5643 5649 5652 5656 5663 5674 5681 5686 5693 5694 5706 5716 5720 5726 5732 5740 5750 5753 5755 5756
5429 5437 5449 5458 5470 5480 5489 5498 5506 5514 5519 5526 5532 5539 5548 5556 5565 5573 5581 5592 5597 5606 5613 5620 5625 5630 5638 5651 5657 5662 5668 5674 5678 5680 5690 5692 5708 5711 5716 5721 5727 5738 5741 5744 5746
5427 5435 5446 5452 5466 5476 5484 5493 5500 5506 5511 5520 5526 5533 5540 5549 5557 5564 5575 5583 5589 5600 5601 5606 5606 5622 5632 5638 5642 5651 5658 5662 5664 5679 5676 5694 5694 5704 5709 5713 5715 5719 5728 5734 5737
5424 5434 5447 5458 5464 5472 5479 5488 5494 5500 5507 5515 5521 5526 5532 5539 5552 5562 5566 5570 5580 5590 5595 5597 5603 5615 5621 5626 5631 5637 5645 5650 5657 5666 5666 5678 5681 5693 5697 5698 5703 5710 5714 5720 5724
5424 5435 5445 5452 5460 5470 5479 5486 5492 5495 5500 5505 5510 5516 5523 5536 5543 5548 5551 5558 5572 5579 5584 5592 5599 5605 5611 5619 5625 5624 5635 5644 5653 5658 5666 5665 5682 5684 5687 5687 5693 5699 5704 5706 5712
Wind_Speed
64 64 63 63 61 58 55 55 54 53 56 60 60 59 58 57 55 58 56 53 50 50 50 49 47 42 37 30 28 22 19 26 32 34 31 27 24 21 20 19 15 9 14 9 7
60 63 63 61 60 59 56 55 54 53 53 53 54 54 59 58 56 57 54 52 50 50 50 49 46 44 40 34 30 26 24 22 30 34 30 26 25 24 22 20 17 11 14 11 8
60 62 62 62 61 60 59 58 56 55 53 53 52 51 49 61 58 51 57 52 50 49 50 52 45 45 42 38 34 31 23 23 30 33 30 29 25 26 23 21 18 15 16 13 10
59 61 62 63 64 63 62 60 58 57 56 55 54 53 52 51 59 55 54 55 53 52 50 50 46 47 44 40 37 34 30 22 27 34 32 29 27 26 24 22 20 19 18 15 13
61 60 61 62 65 65 64 62 61 59 58 58 58 56 54 51 49 55 52 51 54 52 52 49 47 48 45 43 41 32 36 32 26 30 33 32 28 24 27 25 22 22 21 18 15
62 60 60 62 62 63 63 62 62 61 59 57 57 54 56 54 50 48 48 51 50 51 53 52 47 47 46 44 43 37 28 33 32 30 32 32 29 29 30 24 23 23 22 20 18
61 62 61 61 62 61 60 59 59 59 59 58 57 56 59 54 54 54 50 49 53 51 51 53 53 51 50 48 47 40 37 32 38 35 28 30 32 27 29 28 27 25 24 23 20
60 62 62 61 61 60 61 61 60 59 59 57 55 57 62 55 56 55 51 49 48 53 53 54 55 53 51 49 49 44 45 43 31 37 33 34 23 32 32 30 30 28 25 27 24
59 60 62 62 61 59 59 60 60 59 58 57 55 58 63 56 56 55 51 51 51 51 54 56 57 54 52 50 50 48 48 46 36 41 37 37 23 32 30 32 33 32 30 29 26
60 59 61 61 61 59 59 60 60 60 60 59 58 58 60 54 53 53 49 50 52 53 55 55 59 59 54 56 53 51 50 46 42 37 31 33 27 31 31 31 34 34 32 29 28
61 60 60 62 60 59 60 63 64 64 63 61 59 59 55 54 50 50 47 45 47 49 55 58 63 62 55 54 51 52 52 51 50 50 46 39 35 32 36 33 30 34 33 31 30
61 60 59 60 60 60 60 57 55 54 58 58 56 53 53 52 49 46 44 40 41 44 52 60 62 62 54 56 54 55 54 54 53 50 50 45 39 33 34 36 31 33 33 33 31
62 61 60 61 62 61 56 53 53 50 50 48 50 54 55 51 50 45 44 41 36 43 47 55 56 57 59 58 56 55 58 55 55 53 51 49 48 38 35 32 35 27 30 31 35
59 62 62 63 64 59 55 51 50 49 51 52 50 48 49 48 49 43 46 47 50 46 40 48 52 61 59 60 60 58 54 55 57 54 55 55 55 43 37 35 33 26 24 23 29
57 59 63 59 58 58 52 48 47 45 53 53 55 52 49 51 53 51 50 50 51 49 51 50 50 55 60 57 58 61 54 55 55 54 57 57 59 49 40 38 32 28 23 30 26
54 56 58 56 56 49 51 43 39 47 55 55 56 56 55 53 56 52 51 50 51 56 54 55 46 51 54 52 54 56 55 56 57 57 62 61 59 61 46 41 35 30 30 32 27
51 51 51 49 50 53 52 46 49 51 51 53 55 57 53 52 55 54 52 56 56 54 58 57 57 47 47 55 58 59 56 54 55 60 66 62 62 63 50 40 36 36 33 31 30
49 51 54 51 54 53 51 58 59 59 53 53 52 52 53 53 55 52 55 57 58 54 42 50 62 53 41 48 60 62 63 66 64 65 68 66 67 64 54 40 36 34 35 33 32
54 54 53 55 55 56 55 59 62 59 54 53 52 52 54 53 54 54 56 59 56 60 57 40 51 58 58 52 50 60 65 57 62 62 65 66 66 62 56 40 42 35 35 35 33
53 54 54 53 54 54 57 59 60 60 58 55 55 53 54 53 55 59 58 57 61 59 66 62 47 51 63 58 59 60 56 63 59 62 64 68 67 64 60 43 38 38 38 37 35
49 51 50 49 47 53 58 60 56 57 57 57 56 56 54 47 48 58 59 58 59 59 61 61 60 61 42 49 60 61 68 66 61 60 63 63 65 62 58 49 39 38 36 36 36
46 48 47 48 51 55 58 57 57 53 52 54 55 53 49 50 50 51 57 53 55 56 57 57 63 65 52 53 52 48 49 61 66 66 63 62 63 59 58 55 40 38 39 39 37
44 46 49 53 57 56 50 50 48 50 49 50 53 52 51 49 53 51 49 52 56 63 64 43 48 67 59 60 57 54 61 55 52 60 62 61 60 59 57 51 42 36 38 39 39
44 54 55 56 54 51 45 43 44 47 48 49 50 53 54 52 52 52 52 53 55 62 59 52 62 65 54 61 56 58 56 61 60 57 60 60 54 57 55 52 45 37 40 41 43
47 47 49 54 50 48 48 43 43 45 47 47 50 50 55 57 54 50 53 52 53 58 53 55 71 61 57 48 69 56 48 55 61 55 60 53 56 53 50 48 46 46 42 43 47
47 39 46 46 43 43 43 41 39 40 41 43 45 50 53 61 59 55 48 47 50 51 57 56 58 65 52 43 55 50 49 47 44 44 51 56 59 54 50 53 52 49 46 42 46
37 38 42 41 40 37 35 33 35 37 41 46 50 52 54 59 61 68 59 48 46 42 45 58 53 53 51 51 54 58 56 49 49 45 46 49 53 53 46 52 51 49 47 42 44
Wind_Direction
231 226 223 221 220 222 222 221 222 222 222 224 225 225 226 227 225 228 233 230 230 229 230 230 233 236 235 227 223 227 229 225 223 226 232 232 238 244 244 249 250 253 263 263 248
229 227 224 222 221 221 221 222 220 221 221 222 221 222 224 228 225 224 228 231 233 232 229 228 230 234 235 227 218 219 221 231 225 229 237 240 239 243 243 246 247 244 251 253 241
228 227 224 223 223 223 224 223 222 223 222 221 222 220 218 223 226 222 224 224 230 235 232 231 228 232 233 230 230 219 225 229 224 225 235 238 239 244 243 246 242 236 245 243 241
225 224 226 224 223 224 224 226 225 223 224 224 224 224 223 220 224 222 223 223 226 231 236 233 232 230 232 235 231 230 224 236 227 229 234 234 234 246 244 246 234 234 240 236 231
223 223 223 224 224 224 225 226 227 226 225 225 227 228 228 226 223 224 223 224 225 228 233 234 234 233 233 235 234 232 235 226 228 228 237 236 237 242 244 244 231 229 238 232 230
221 222 222 221 223 224 225 226 226 227 228 227 228 228 229 228 226 222 220 221 222 224 227 231 232 234 233 234 233 225 226 231 234 231 231 232 235 237 240 237 234 231 237 235 230
221 219 221 222 223 223 224 225 225 225 226 227 228 229 231 229 228 226 223 220 220 221 226 229 229 231 233 231 233 229 229 221 229 235 234 237 235 240 240 237 230 232 236 237 232
223 218 218 220 222 223 223 224 224 223 224 225 226 229 231 230 230 228 226 224 221 222 224 229 231 231 233 234 234 232 229 224 223 235 236 240 239 235 238 235 237 233 233 240 235
221 219 218 218 220 221 222 221 221 220 220 220 222 226 228 227 230 230 228 228 225 223 225 227 231 231 229 234 236 233 232 236 236 232 237 241 232 246 237 235 236 233 229 234 238
218 217 218 218 219 219 219 219 217 217 217 219 220 224 225 226 230 230 228 227 228 226 225 227 229 231 230 233 236 236 237 237 231 230 241 244 236 251 237 228 234 236 234 235 237
215 213 216 218 218 217 215 213 212 215 218 223 226 226 225 226 226 229 229 228 227 225 224 223 231 233 236 237 235 238 238 238 235 240 246 245 240 239 256 232 235 238 242 240 234
210 211 211 215 215 213 212 213 216 223 222 221 221 224 229 230 229 230 229 228 225 228 229 228 232 234 232 233 232 236 240 239 243 243 246 244 241 241 247 260 248 244 247 247 244
210 208 207 210 210 211 212 211 212 216 216 225 230 227 226 225 229 229 232 228 226 225 226 230 228 230 232 233 236 236 240 242 243 246 246 245 240 236 239 244 258 251 251 251 254
209 208 206 207 209 210 212 209 212 213 215 218 221 223 228 231 235 232 232 227 227 227 231 231 227 226 229 231 235 237 238 242 244 245 247 246 244 236 238 242 249 254 257 259 253
208 210 210 209 213 213 214 211 217 209 215 219 220 222 225 231 233 233 235 230 232 228 222 236 230 230 227 233 234 236 233 240 244 245 247 247 248 232 236 242 247 249 243 252 256
205 207 208 205 205 203 204 201 192 203 218 221 224 227 228 231 233 231 231 232 227 222 223 233 235 229 227 228 232 232 230 234 239 243 245 245 245 240 234 241 244 249 243 259 259
204 204 204 203 206 198 194 186 195 208 219 223 227 230 232 232 235 235 233 231 227 219 227 230 233 236 230 229 230 229 229 228 232 237 244 245 245 241 235 239 244 245 247 245 253
195 197 199 200 196 198 187 188 200 198 213 229 229 229 231 230 230 230 232 229 226 216 221 233 232 226 220 228 230 234 232 230 233 240 245 246 244 245 245 240 243 245 246 249 249
194 192 199 201 200 200 191 199 200 205 211 225 227 227 229 228 229 231 231 227 227 221 214 219 230 223 231 236 232 231 230 233 234 237 242 248 247 250 251 244 245 244 245 250 251
194 195 197 200 199 203 204 205 204 209 210 217 223 227 227 227 226 228 228 229 222 224 217 222 229 228 230 242 234 233 234 234 232 233 238 245 248 249 251 246 240 243 243 246 249
190 193 195 196 194 205 209 208 209 213 214 216 222 224 224 218 221 225 229 227 222 221 215 220 223 222 230 240 235 231 227 229 231 236 239 244 248 250 251 251 240 239 243 247 250
190 190 190 190 194 206 210 211 213 216 220 221 223 224 223 219 219 220 227 225 220 218 216 219 230 226 232 240 235 237 237 238 235 232 230 236 240 245 247 252 243 241 243 247 249
192 190 190 192 198 206 207 212 215 218 222 223 225 224 223 221 221 221 224 218 216 214 217 214 232 230 230 239 239 235 237 237 239 235 236 237 240 244 249 254 252 245 246 247 250
196 187 193 199 202 206 207 209 216 219 222 224 225 226 222 219 219 218 221 218 220 214 224 229 228 225 235 234 236 241 243 242 240 239 232 231 233 242 245 247 253 246 241 241 241
189 195 199 201 203 209 212 214 220 221 223 227 228 227 221 219 216 212 214 218 216 212 214 230 225 221 223 234 236 242 247 246 243 245 242 229 234 234 244 248 247 247 243 240 239
192 199 203 209 210 211 215 215 216 219 224 225 227 224 221 218 212 205 206 203 206 216 229 234 234 234 236 235 237 229 228 240 242 240 244 238 240 238 242 243 243 247 250 244 243
192 197 200 203 207 206 212 221 226 231 231 226 224 223 223 219 221 221 228 227 196 205 218 237 232 235 227 227 231 232 232 244 248 246 248 245 235 233 240 243 245 246 248 252 253